Location: Mornas
(44.2002°N, 4.7290°E)
Time: 03:52:38
(UTC+00:00)

Daily predictions for brighter satellites

Satellite Brightness Start Highest point End
(mag) Time Altitude Azimuth Time Altitude Azimuth Time Altitude Azimuth
Cosmos 2237 Rocket 3.5 00:02:40 10° NW 00:06:31 27° W 00:06:31 27° W
Okean 1-7 4.4 00:06:10 10° NNW 00:08:49 33° NW 00:08:49 33° NW
Cosmos 2227 Rocket 3.0 00:11:26 40° W 00:12:22 43° WNW 00:17:46 10° NNE
ATLAS CENTAUR R/B 3.5 00:15:07 19° ENE 00:15:07 19° ENE 00:16:32 10° NE
Cosmos 2251 Rocket 3.5 00:15:14 79° NNE 00:15:14 79° NNE 00:20:15 10° NNE
Cosmos 2263 Rocket 2.7 00:22:51 47° ESE 00:22:51 47° ESE 00:28:06 10° NE
ARGOS Delta rocket 4.3 00:22:45 10° NNE 00:26:27 51° NE 00:26:27 51° NE
ASTEX 1 3.6 00:27:54 66° ENE 00:27:54 66° ENE 00:32:32 10° N
Meteor 2-9 Rocket 4.5 00:32:36 51° E 00:32:43 51° E 00:37:57 10° NNE
CZ-4C R/B 2.9 00:26:22 10° NW 00:33:43 90° NE 00:37:07 41° SE
Cosmos 2184 Rocket 3.9 00:33:01 66° SSE 00:33:46 75° E 00:40:07 10° NNE
SL-16 R/B 2.8 00:32:40 10° NW 00:37:14 43° W 00:37:14 43° W
Cosmos 2154 Rocket 4.2 00:41:39 53° SE 00:42:41 60° E 00:48:47 10° NNE
Cosmos 1743 4.4 00:46:30 29° NNW 00:46:30 29° NNW 00:48:48 10° N
Cosmos 2227 4.3 00:45:19 59° ESE 00:45:28 59° ESE 00:50:59 10° NNE
Cosmos 407 Rocket 3.5 00:46:25 76° E 00:46:25 76° E 00:51:35 10° NNE
Cosmos 2074 Rocket 3.8 00:46:52 70° SSW 00:47:38 84° W 00:53:53 10° N
Cosmos 1461 3.8 00:49:08 46° NW 00:49:08 46° NW 00:53:11 10° NNE
Helios 1B rocket 4.4 00:49:05 10° NE 00:52:06 21° E 00:52:06 21° E
USA 267 4.5 00:50:41 10° NE 00:56:35 38° NNW 01:02:30 10° W
Lacrosse 5 4.0 00:52:39 10° WNW 00:56:45 24° NNW 01:00:51 10° NE
SL-24 R/B - RUBIN 2 3.9 00:53:41 10° NNW 00:58:41 66° NE 00:59:02 63° E
Cosmos 1975 3.5 00:59:47 55° NNE 00:59:47 55° NNE 01:03:02 10° N
Cosmos 1674 Rocket 3.8 00:56:09 10° N 01:00:13 69° NNE 01:00:13 69° NNE
Cosmos 1356 Rocket 4.1 01:03:45 50° NE 01:03:45 50° NE 01:06:57 10° NNE
CZ-2D R/B 2.5 00:59:06 10° NNE 01:04:26 55° E 01:05:14 51° SE
Meteor 1-21 4.3 00:58:37 10° N 01:04:27 78° E 01:05:37 58° SSE
NPP 4.2 01:03:13 10° NNE 01:08:26 48° E 01:09:23 43° SE
Cosmos 1943 3.2 01:03:39 10° NNW 01:09:24 81° ENE 01:10:48 53° SE
Helios 1A 3.5 01:12:43 51° NW 01:12:43 51° NW 01:16:02 10° NNW
CZ-4 R/B 4.0 01:07:20 10° N 01:12:19 65° WNW 01:12:33 64° W
SL-16 R/B 2.6 01:11:43 40° SE 01:14:04 73° ENE 01:20:16 10° NNW
USA 290 4.2 01:11:55 10° N 01:14:28 28° NE 01:14:28 28° NE
NOSS 3-3 (A) 4.0 01:13:43 51° WSW 01:15:05 67° NW 01:21:39 10° NE
MOZ.5/SAFIR/RUBIN 5/SL-8 3.9 01:15:33 60° WNW 01:15:33 60° WNW 01:19:48 10° NNW
NOSS 3-3 (C) 4.0 01:13:51 52° WSW 01:15:12 68° NW 01:21:44 10° NE
Cosmos 1378 Rocket 3.6 01:11:40 10° N 01:15:32 69° NNW 01:15:32 69° NNW
ATLAS 2AS CENTAUR R/B 4.4 01:09:25 10° NNW 01:16:03 34° NE 01:22:13 10° E
Cosmos 1140 Rocket 3.5 01:16:11 63° W 01:16:36 65° WNW 01:21:49 10° NNE
Okean 2 3.7 01:12:24 10° N 01:15:58 64° NNW 01:15:58 64° NNW
Cosmos 1674 4.2 01:15:19 10° NNE 01:18:44 30° ENE 01:19:17 29° E
Iridium 4 Rocket 3.7 01:17:07 10° N 01:22:57 85° E 01:24:25 54° S
Cosmos 44 4.5 01:18:20 10° NW 01:21:36 32° WNW 01:21:36 32° WNW
Cosmos 1238 Rocket 3.2 01:23:58 55° NNW 01:23:58 55° NNW 01:27:22 10° N
Cosmos 1707 3.2 01:19:57 10° N 01:23:03 56° N 01:23:03 56° N
Cosmos 1975 Rocket 4.5 01:20:46 10° N 01:24:45 33° ENE 01:26:22 25° ESE
Cosmos 1400 Rocket 4.4 01:25:44 25° ESE 01:26:15 25° E 01:29:31 10° NE
USA 234 4.4 01:32:47 25° W 01:32:47 25° W 01:36:22 10° WNW
Cosmos 1844 Rocket 3.7 01:30:42 30° SE 01:32:26 37° ESE 01:37:36 10° NE
Cosmos 1733 Rocket 4.3 01:35:04 30° WNW 01:35:04 30° WNW 01:38:48 10° NNW
Resurs 1-4 Rocket 2.0 01:31:03 10° N 01:36:21 78° WNW 01:37:21 59° SW
Cosmos 1908 Rocket 3.4 01:36:28 78° W 01:36:28 78° W 01:40:50 10° N
Nadezhda 3 Rocket 4.3 01:41:03 10° NNW 01:47:05 47° W 01:48:26 41° SW
Cosmos 2218 Rocket 4.3 01:44:33 32° SSE 01:47:34 65° E 01:53:46 10° NNE
ADEOS Rocket 2.6 01:49:26 45° S 01:51:07 74° WSW 01:56:41 10° NNW
Cosmos 1818 3.5 01:46:15 10° NW 01:51:46 87° WSW 01:55:45 19° SSE
ATLAS CENTAUR R/B 2.8 01:51:14 24° WNW 01:51:52 25° NW 01:55:16 10° NNE
SL-8 R/B 4.5 01:50:05 17° WNW 01:53:36 50° N 01:58:17 10° ENE
Cosmos 1954 Rocket 4.2 01:55:23 46° WSW 01:56:41 59° WNW 02:01:57 10° NNE
Meteor 1-12 Rocket 4.3 01:56:13 37° S 01:58:34 76° E 02:04:21 10° NNE
Cosmos 2341 Rocket 4.0 01:56:31 41° SSW 01:58:45 72° W 02:04:59 10° N
ADEOS II 2.1 01:53:36 10° NNE 01:58:53 81° ESE 02:00:45 42° S
DNEPR-1 R/B 4.3 01:59:31 38° S 02:01:02 52° ESE 02:05:34 10° NE
Meteor 2-20 4.4 01:56:07 10° N 02:02:20 85° E 02:06:08 25° S
UNK 4.1 02:02:32 45° WSW 02:02:45 45° W 02:07:14 10° NNW
Cosmos 1603 4.3 02:01:11 10° NW 02:06:14 35° WSW 02:06:29 35° WSW
Cosmos 2263 Rocket 3.5 02:04:32 23° W 02:06:47 30° NW 02:11:46 10° N
Cosmos 1346 Rocket 4.3 02:03:15 10° N 02:06:50 34° ENE 02:10:04 12° SE
Cosmos 1766 4.0 02:07:01 33° SE 02:08:18 47° E 02:12:07 10° NNE
Meteor 1-28 Rocket 3.2 02:08:03 50° SSE 02:08:56 78° ENE 02:12:39 10° N
Cosmos 1626 2.1 02:06:53 10° N 02:10:35 76° E 02:11:25 50° SSE
ARIANE 5 R/B 4.2 02:08:01 10° NE 02:12:30 28° E 02:16:57 10° SSE
Orbus 7S? 4.3 02:09:58 29° SW 02:14:02 76° NW 02:17:59 10° NE
AQUA 4.2 02:12:30 10° N 02:17:05 48° WNW 02:18:24 37° WSW
Iridium 45 4.4 02:16:58 66° WSW 02:17:12 69° W 02:20:48 10° N
Cosmos 1763 Rocket 3.4 02:14:03 10° NNW 02:19:20 68° WSW 02:22:21 25° S
Cosmos 2344 4.1 02:14:59 23° WSW 02:19:35 49° NW 02:27:19 10° NNE
Cosmos 1782 Rocket 3.9 02:19:27 42° WSW 02:20:19 48° WNW 02:24:36 10° N
CZ-4C R/B 4.1 02:16:03 10° WNW 02:21:51 24° WSW 02:22:12 23° WSW
MINOTAUR 4 R/B 4.0 02:21:43 59° SW 02:22:06 65° WSW 02:25:40 10° NNW
Cosmos 44 Rocket 4.0 02:19:40 10° NNW 02:24:45 58° NE 02:29:39 10° SE
Landsat 4 3.5 02:22:55 10° NNE 02:26:39 87° W 02:27:39 47° SSW
Helios 1B rocket 3.3 02:23:48 10° N 02:27:33 34° WNW 02:28:23 31° W
Cosmos 540 Rocket 3.5 02:25:48 10° NNW 02:31:01 85° ENE 02:36:11 10° SSE
Meteor 1-15 Rocket 4.3 02:28:54 25° S 02:32:28 88° W 02:38:19 10° N
IDEFIX/ARIANE 42P 2.5 02:28:12 10° NNE 02:33:25 88° WNW 02:36:25 26° SSW
Cosmos 1340 3.8 02:31:53 10° NW 02:34:46 26° W 02:34:46 26° W
MSX 3.9 02:32:06 10° NNE 02:37:51 75° ESE 02:42:08 19° S
Cosmos 1184 Rocket 4.2 02:37:00 10° N 02:40:00 37° ENE 02:43:00 10° SE
Meteor 1-29 3.5 02:37:00 10° N 02:40:08 39° WNW 02:40:40 36° W
Lacrosse 5 4.4 02:37:36 10° NW 02:41:16 19° N 02:44:56 10° NE
Cosmos 1536 Rocket 4.0 02:37:15 10° N 02:41:38 63° E 02:46:01 10° SSE
Okean 2 Rocket 3.1 02:40:28 26° S 02:43:03 87° WNW 02:47:35 10° N
CZ-2D R/B 3.6 02:39:55 10° NNW 02:44:05 23° WNW 02:46:33 17° W
IRS-1D 3.7 02:40:14 10° N 02:45:06 54° WNW 02:47:46 26° SW
Cosmos 1300 Rocket 3.7 02:44:10 30° SW 02:46:06 58° W 02:50:27 10° N
Iridium 51 4.3 02:44:07 21° S 02:46:20 67° E 02:50:03 10° N
Cosmos 1733 3.8 02:47:14 32° WSW 02:48:20 40° WNW 02:51:58 10° N
IRS-1C 4.3 02:44:20 10° NNE 02:49:41 75° ESE 02:54:08 15° S
DELTA 2 DEB (DPAF) 4.4 02:47:30 25° SSW 02:49:45 47° W 02:54:03 10° NNW
IKONOS-2 4.4 02:46:22 16° S 02:49:45 72° WSW 02:54:02 10° NNW
BREEZE-M DEB (TANK) 4.3 02:48:21 10° WNW 02:50:36 33° NNE 02:54:58 10° E
Meteor 2-10 4.3 02:46:20 14° S 02:50:48 69° E 02:56:12 10° NNE
Cosmos 1674 4.3 02:51:16 10° NW 02:53:59 19° W 02:54:01 19° W
CZ-4B R/B 3.9 02:52:13 10° NNE 02:56:55 55° E 03:01:34 10° S
FALCON 9 DEB 4.1 02:56:25 23° S 02:57:25 29° SE 03:00:05 10° ENE
NOSS 3-4 (A) 4.2 02:51:20 10° NW 02:58:04 45° WSW 03:05:29 10° S
NOSS 3-4 (C) 4.2 02:51:26 10° NW 02:58:11 46° WSW 03:05:37 10° S
SL-16 R/B 3.9 02:56:49 17° WSW 02:58:16 19° W 03:02:29 10° NW
CZ-2C R/B 3.6 02:53:59 10° NNE 02:58:18 37° E 03:02:40 10° SSE
Cosmos 1741 Rocket 4.5 02:55:31 23° SW 02:58:33 48° WNW 03:03:42 10° N
BREEZE-M DEB (TANK) 2.6 02:58:46 18° W 03:00:41 45° SSW 03:03:43 10° SE
Cosmos 1570 Rocket 4.1 02:56:00 10° NNW 03:01:23 83° ENE 03:06:45 10° SSE
Cosmos 1025 Rocket 3.6 02:58:09 10° NNW 03:02:10 37° W 03:04:31 21° SW
Cosmos 1975 Rocket 4.4 02:59:03 10° NW 03:02:23 22° W 03:03:28 20° WSW
Cosmos 1400 Rocket 4.2 03:01:20 20° W 03:02:38 24° WNW 03:05:53 10° NNW
Sich 1 Rocket 4.3 03:01:32 23° SW 03:03:42 37° WNW 03:07:52 10° N
Cosmos 2151 Rocket 3.6 03:01:05 20° SSW 03:04:04 66° W 03:08:31 10° N
Cosmos 1726 2.1 03:01:54 17° S 03:04:42 83° E 03:08:25 10° N
Cosmos 1844 4.0 03:02:41 20° SW 03:06:20 51° WNW 03:11:48 10° NNE
Meteor 2-5 Rocket 3.8 03:00:31 10° NNW 03:06:20 67° W 03:12:02 10° S
ATLAS 2AS CENTAUR R/B 2.7 03:00:24 10° NW 03:07:37 71° WSW 03:14:14 10° SSE
Milstar 3 4.0 03:07:59 16° SW 03:11:23 22° S 03:16:23 10° SE
BREEZE-M DEB (TANK) 3.7 03:10:20 14° WNW 03:12:05 33° NNW 03:14:27 10° ENE
CZ-2C R/B 4.4 03:09:18 10° NNE 03:12:44 32° E 03:16:12 10° SSE
Cosmos 1867 4.1 03:09:33 18° WSW 03:13:26 49° NW 03:18:46 10° NNE
X-37B 1.1 03:11:51 24° SW 03:13:26 47° SSE 03:16:32 10° E
Resurs 1-4 Rocket 4.2 03:13:17 10° NNW 03:15:17 12° NW 03:17:17 10° WNW
Cosmos 968 Rocket 4.1 03:10:41 10° S 03:15:39 54° ESE 03:20:40 10° NNE
Cosmos 1844 Rocket 3.6 03:12:22 16° WSW 03:16:18 37° NW 03:21:32 10° NNE
FALCON 9 DEB 3.1 03:14:21 21° WSW 03:16:29 80° NNW 03:19:56 10° NE
Cosmos 1315 Rocket 3.2 03:19:05 16° SW 03:22:00 46° WNW 03:25:53 10° N
Cosmos 1934 Rocket 4.1 03:16:00 10° S 03:22:11 83° E 03:28:31 10° N
Okean 1 Rocket 3.1 03:20:16 10° S 03:24:42 82° W 03:29:12 10° N
SL-24 R/B 4.1 03:20:10 10° S 03:25:02 71° WSW 03:29:17 10° NNW
Cosmos 2278 Rocket 3.0 03:21:53 10° S 03:27:20 51° ESE 03:32:48 10° NE
FALCON 9 DEB 3.5 03:25:15 16° SSW 03:27:22 44° SE 03:30:15 10° ENE
Aureole 1 Rocket 4.4 03:22:51 14° SW 03:28:18 59° WNW 03:36:02 10° NNE
SL-08 R/B 3.4 03:23:45 10° S 03:28:38 62° WSW 03:33:32 10° NNW
IRS-P3 4.5 03:25:03 10° N 03:30:13 50° WNW 03:35:17 10° SW
SOZ 4.4 03:31:23 10° NW 03:33:39 78° NNE 03:36:34 10° ESE
SL-8 R/B 3.9 03:31:42 10° WNW 03:36:31 75° NNE 03:41:20 10° ESE
ADEOS II 4.0 03:34:52 10° NNW 03:37:54 16° WNW 03:40:55 10° W
FALCON 9 DEB 3.0 03:36:55 13° SW 03:39:27 64° SE 03:42:26 10° ENE
Cosmos 1605 Rocket 4.3 03:34:38 10° S 03:40:57 74° E 03:47:12 10° NNE
Cosmos 1346 Rocket 4.4 03:40:17 10° NW 03:42:54 17° W 03:45:29 10° SW
Cosmos 1470 3.5 03:39:41 10° SW 03:43:14 36° WNW 03:46:51 10° N
MOS 1 Rocket 3.8 03:38:37 10° SSE 03:43:54 79° ENE 03:49:22 10° N
BREEZE-M DEB (TANK) 4.2 03:24:39 10° WNW 03:44:30 87° SSW 03:49:04 10° ESE
BREEZE-M DEB (TANK) 3.9 03:39:03 10° W 03:44:50 39° NNW 03:47:18 10° ENE
Cosmos 1441 Rocket 3.3 03:41:33 10° NNW 03:45:26 58° W 03:49:19 10° S
GPS 2-04 Rocket1 4.4 03:42:40 10° SW 03:45:49 21° S 03:48:58 10° ESE
ARIANE 5 R/B 3.2 03:46:50 10° N 03:51:40 39° WNW 03:56:29 10° SW
Cosmos 1703 4.2 03:50:09 10° N 03:53:57 52° ENE 03:57:44 10° SSE
ALOS 2.3 03:51:06 10° NNE 03:55:49 89° W 04:00:28 10° SSW
Cosmos 1484 Rocket 3.5 03:51:58 10° NNE 03:55:56 57° E 03:59:51 10° S
Cosmos 1953 2.5 03:53:19 10° S 03:57:21 78° E 04:01:22 10° N
Cosmos 921 Rocket 3.7 03:55:13 10° NW 03:59:20 35° W 04:03:25 10° SSW
PAYLOAD A 4.4 03:54:40 10° N 03:59:54 55° WNW 04:04:58 10° SSW
COSMOS 2406 3.3 03:55:00 10° NNW 04:00:47 87° WSW 04:06:33 10° SSE
